TimeEDT,TemperatureF,Dew PointF,Humidity,Sea Level PressureIn,VisibilityMPH,Wind Direction,Wind SpeedMPH,Gust SpeedMPH,PrecipitationIn,Events,Conditions,WindDirDegrees,DateUTC
12:53 AM,53.1,48.9,86,30.04,10.0,Calm,Calm,-,N/A,,Clear,0,2012-10-26 04:53:00
1:53 AM,51.1,48.9,92,30.04,10.0,Calm,Calm,-,N/A,,Clear,0,2012-10-26 05:53:00
2:53 AM,50.0,48.0,93,30.04,10.0,Calm,Calm,-,N/A,,Clear,0,2012-10-26 06:53:00
3:53 AM,50.0,48.0,93,30.04,10.0,Calm,Calm,-,N/A,,Clear,0,2012-10-26 07:53:00
4:53 AM,48.9,48.0,97,30.04,10.0,Calm,Calm,-,N/A,,Clear,0,2012-10-26 08:53:00
5:53 AM,50.0,48.0,93,30.05,10.0,Calm,Calm,-,N/A,,Scattered Clouds,0,2012-10-26 09:53:00
6:53 AM,50.0,48.0,93,30.06,10.0,Calm,Calm,-,N/A,,Scattered Clouds,0,2012-10-26 10:53:00
7:53 AM,51.1,48.9,92,30.07,10.0,Calm,Calm,-,N/A,,Mostly Cloudy,0,2012-10-26 11:53:00
8:53 AM,54.0,51.1,90,30.08,10.0,Calm,Calm,-,N/A,,Scattered Clouds,0,2012-10-26 12:53:00
9:53 AM,57.9,53.1,84,30.09,9.0,Calm,Calm,-,N/A,,Scattered Clouds,0,2012-10-26 13:53:00
10:53 AM,64.9,55.0,70,30.07,10.0,ESE,3.5,-,N/A,,Partly Cloudy,110,2012-10-26 14:53:00
11:53 AM,71.1,55.9,59,30.06,10.0,Calm,Calm,-,N/A,,Scattered Clouds,0,2012-10-26 15:53:00
12:53 PM,75.9,55.0,48,30.02,10.0,Calm,Calm,-,N/A,,Partly Cloudy,0,2012-10-26 16:53:00
1:53 PM,75.0,51.1,43,29.99,10.0,South,4.6,-,N/A,,Partly Cloudy,170,2012-10-26 17:53:00
2:53 PM,77.0,48.9,37,29.96,10.0,Calm,Calm,-,N/A,,Scattered Clouds,0,2012-10-26 18:53:00
3:53 PM,80.1,48.0,32,29.94,10.0,Calm,Calm,-,N/A,,Scattered Clouds,0,2012-10-26 19:53:00
4:53 PM,80.1,46.9,31,29.92,10.0,Calm,Calm,-,N/A,,Mostly Cloudy,0,2012-10-26 20:53:00
5:53 PM,77.0,45.0,32,29.92,10.0,Calm,Calm,-,N/A,,Mostly Cloudy,0,2012-10-26 21:53:00
6:53 PM,69.1,48.9,49,29.93,10.0,WNW,4.6,-,N/A,,Scattered Clouds,300,2012-10-26 22:53:00
7:53 PM,61.0,50.0,67,29.94,10.0,Calm,Calm,-,N/A,,Scattered Clouds,0,2012-10-26 23:53:00
8:53 PM,60.1,48.9,67,29.94,10.0,Calm,Calm,-,N/A,,Clear,0,2012-10-27 00:53:00
9:53 PM,57.9,50.0,75,29.93,10.0,Calm,Calm,-,N/A,,Clear,0,2012-10-27 01:53:00
10:53 PM,55.0,48.9,80,29.93,10.0,Calm,Calm,-,N/A,,Partly Cloudy,0,2012-10-27 02:53:00
11:53 PM,55.0,48.9,80,29.92,10.0,Calm,Calm,-,N/A,,Partly Cloudy,0,2012-10-27 03:53:00